Regional Weather Roundup
Issued by NWS

Home | Current Version | Previous Version | Text Only | Print | Product List | Glossary On
Versions: 1 2 3 4 5 6 7 8 9 10 11 12 13 14 15 16 17 18 19 20 21 22 23 24 25 26 27 28 29 30 31 32 33 34 35 36 37 38 39 40 41 42 43 44 45 46 47 48 49 50
000
ASUS43 KMKX 250100
RWRWI

WISCONSIN REGIONAL WEATHER ROUNDUP
NATIONAL WEATHER SERVICE MILWAUKEE/SULLIVAN WI
800 PM CDT MON JUL 24 2017

NOTE: "FAIR" INDICATES FEW OR NO CLOUDS BELOW 12,000 FEET WITH NO
SIGNIFICANT WEATHER AND/OR OBSTRUCTIONS TO VISIBILITY.

WIZ001-002-006>008-014>016-023>028-250200-
NORTHWEST WISCONSIN

CITY           SKY/WX    TMP DP  RH WIND       PRES   REMARKS
SUPERIOR ARPT  NOT AVBL
ASHLAND        CLEAR     66  60  81 CALM      30.06S
HAYWARD        CLEAR     72  57  59 S3        30.07R
SIREN          CLOUDY    73  57  57 SE3       30.06R
CUMBERLAND     CLEAR     70  55  60 SE3       30.07S
RICE LAKE      CLEAR     72  56  56 SE3       30.08S
CHETEK         CLEAR     72  60  65 CALM      30.06F
LADYSMITH      CLOUDY    73  58  58 S3        30.09R
EAU CLAIRE     NOT AVBL
MENOMONIE      CLEAR     70  61  71 SE3       30.06S
NEW RICHMOND   CLOUDY    72  58  62 SE5       30.06R
OSCEOLA        CLOUDY    73  60  64 SE3       30.07R
$$

WIZ003>005-009-010-017-018-250200-
NORTH CENTRAL WISCONSIN

CITY           SKY/WX    TMP DP  RH WIND       PRES   REMARKS
MANITOWISH WTR CLEAR     70  58  65 CALM      30.09R
ARBOR VITAE    CLEAR     73  56  54 S5        30.09R
WOODRUFF       CLEAR     73  56  54 S5        30.09R
RHINELANDER    CLEAR     72  55  55 S3        30.11R
EAGLE RIVER    CLEAR     72  47  42 S3        30.10R
LAND O LAKES   CLEAR     72  51  47 CALM      30.11R
PHILLIPS       PTCLDY    70  57  64 S3        30.09R
TOMAHAWK         N/A     70  56  61 CALM      30.11R
MEDFORD        CLEAR     70  55  59 S6        30.10R
MERRILL        CLEAR     72  55  55 S6        30.10R
$$

WIZ029-030-035-036-043>047-250200-
CENTRAL WISCONSIN

CITY           SKY/WX    TMP DP  RH WIND       PRES   REMARKS
WAUSAU         CLEAR     72  54  53 SE8       30.09R
MOSINEE        PTCLDY    70  55  60 SE5       30.11R
MARSHFIELD     CLEAR     69  55  60 S5        30.09R
STEVENS POINT  CLEAR     71  54  55 SE6       30.10R
WAUPACA        CLEAR     75  52  44 CALM      30.10R
WAUTOMA        CLEAR     71  58  63 E3        30.09S
WISC RAPIDS    CLEAR     72  55  55 S6        30.10R
CAMP DOUGLAS   NOT AVBL
$$

WIZ011>013-019>022-031-037>040-048>050-250200-
NORTHEAST WISCONSIN

CITY           SKY/WX    TMP DP  RH WIND       PRES   REMARKS
ANTIGO         CLEAR     66  55  68 S5        30.11S
SHAWANO        CLEAR     73  51  47 CALM      30.09S
OCONTO         CLEAR     70  56  62 CALM      30.09S
STURGEON BAY     N/A     65  54  67 S5        30.11R
GREEN BAY      CLEAR     67  57  70 SE6       30.10R
MANITOWOC      NOT AVBL
APPLETON       PTCLDY    70  54  56 CALM      30.09R
CLINTONVILLE   CLEAR    N/A N/A N/A CALM      30.10S
OSHKOSH        CLEAR     69  55  60 S3        30.09R
$$

WIZ032>034-041-042-053>061-250200-
SOUTHWEST WISCONSIN

CITY           SKY/WX    TMP DP  RH WIND       PRES   REMARKS
LA CROSSE      CLEAR     74  61  63 SE6       30.05S
SPARTA         CLEAR     70  60  71 CALM      30.08S
VIROQUA        CLEAR     68  61  77 CALM      30.08F
BOSCOBEL       CLEAR     71  62  73 CALM      30.07F
PRAIRIE DU CHI CLEAR     72  58  62 E7        30.05F
PLATTEVILLE    CLEAR     72  63  72 E3        30.08S
$$

WIZ056-057-062-063-064-067-068-250200-
SOUTH CENTRAL WISCONSIN

CITY           SKY/WX    TMP DP  RH WIND       PRES   REMARKS
REEDSBURG      CLOUDY    71  60  69 CALM      30.08S
BARABOO/DELLS  CLOUDY    73  55  54 SE3       30.09R
LONE ROCK      NOT AVBL
MINERAL POINT  PTCLDY    72  63  73 CALM      30.09S
MADISON        PTCLDY    71  58  63 E6        30.08R
MIDDLETON      CLEAR     72  59  63 CALM      30.09R
WATERTOWN      CLEAR     69  55  61 E5        30.09R
MONROE         CLEAR     70  57  64 E3        30.08S
JANESVILLE     MOCLDY    72  57  60 E8        30.07S
$$

WIZ051-052-058>065-066-070>072-250200-
SOUTHEAST WISCONSIN

CITY           SKY/WX    TMP DP  RH WIND       PRES   REMARKS
MILWAUKEE      PTCLDY    67  56  67 NE10      30.09S
WAUKESHA       PTCLDY    64  48  55 E6        30.11S
MILWAUKEE/TIMM CLEAR     68  46  45 NE7       30.10S
RACINE         CLEAR     65  59  81 N10       30.10F
KENOSHA        CLEAR     66  56  70 NE5       30.09S
FOND DU LAC    CLEAR     70  50  49 E7        30.10R
SHEBOYGAN      CLEAR     64  55  72 NE5       30.10R
WEST BEND      CLEAR     68  48  49 NE3       30.10S
JUNEAU         CLEAR     70  51  51 CALM      30.11R
$$

LSZ147-162-250200-
LAKE SUPERIOR

STATION/POSITION TIME  TEMP    WIND        PRES    WAVE
                       AIR SEA DIR/SP/G            HT/PER
                 (UTC) (F)     (DEG/KT/KT) (MB)    (FT/S)
W MID LAKE BUOY  2350   56 54  360/  4/  6 1017.7F   0
DEVILS ISLAND    0000   63      90/  8/  8 1017.7R
SAXON HARBOR     0030   67      10/  7/  7 1017.6R
$$

LMZ867-665-643>646-250200-
LAKE MICHIGAN

STATION/POSITION TIME  TEMP    WIND        PRES    WAVE
                       AIR SEA DIR/SP/G            HT/PER
                 (UTC) (F)     (DEG/KT/KT) (MB)    (FT/S)
CHAMBERS ISLAND  0040   70     170/  2/  4 1018.3R
S GREEN BAY BUOY 0030   71 73  240/  2/  4 1018.7R
N MID LAKE BUOY  2350   67 67  230/  4/  6 1019.2R   1
NORTHPORT PIER   0040   70     170/  3/  5 1018.6R
KEWAUNEE LAKESHO 0030   69      CALM  /  1 1018.5S
SHEBOYGAN LAKESH 0000   67      30/ 11/ 12 1018.6F
PORT WASHINGTON  0040   69      20/  5/  8 1020.0R
ATWATER BUOY     2309   67 68   20/ 10/ 14 1019.1R
MILWAUKEE LAKESH 0030   67      20/ 10/ 12   N/A
S MID LAKE BUOY  2350   67 70  360/ 14/ 16 1018.2R   5/ 6
KENOSHA   LAKESH 0000   67      30/ 15/ 16 1018.3
$$

TC  - TEMPERATURE IN CELSIUS
VSB - VISIBILITY IN STATUTE MILES
WCI - WIND CHILL INDEX
HX  - HEAT INDEX





USA.gov is the U.S. government's official web portal to all federal, state and local government web resources and services.